User: anonymous   Login
Location: Franzen
(48.6167°N, 15.3833°E)
Time: 04:19:03
(UTC+00:00)
Language:

BREEZE M DEB (TANK) - Orbit

View from above orbital plane
View from above orbital plane
View from above satellite
View from above satellite

Ground track
Ground track

The orbit data is extracted from the following two-line orbital elements,

1 28926U 05052C   21167.85999083  .00003183  00000-0  35386-3 0  9990
2 28926  49.5727  50.2659 5166389 145.9180 261.9083  5.37862008295516
Epoch (UTC): 16 June 2021 20:38:23
Eccentricity: 0.5166389
inclination: 49.5727°
perigee height: 273 km
apogee height: 14491 km
right ascension of ascending node: 50.2659°
argument of perigee: 145.9180°
revolutions per day: 5.37862008
mean anomaly at epoch: 261.9083°
orbit number at epoch: 29551

The dashed part of the orbit path shows where the satellite is in the earth's shadow,  

DLR